Lexington Weather

Lexington, Massachusetts, USA

29°F
12/12/2019 3:52pm 
  • Lexington Conditions: Partly cloudy
  • Temperature: 28.6°F / -1.9°CColder 0.7°F than last hour.
  • Dew Point: 20.1°FIncreased 0.3°Fsince last hour.
  • Relative Humidity: 70%Increased 3.0% since last hour.
  • Wind: Wind from SSW SSW 1 mph, 10-min avg: 1 mph, gust: 3 mph
  • Barometer: 30.65 in Steady
  • Visibility: 10 miles
  • Snow Today: 0.0 in
  •   

Regional Weather Roundup
for Boston / Norton, MA

        
000
ASUS41 KBOX 120910
RWRBOX

REGIONAL WEATHER ROUNDUP
NATIONAL WEATHER SERVICE BOSTON/NORTON MA
400 AM EST THU DEC 12 2019

NOTE:  "FAIR" INDICATES FEW OR NO CLOUDS BELOW 12,000 FEET WITH NO 
SIGNIFICANT WEATHER AND/OR OBSTRUCTIONS TO VISIBILITY.

MAZALL-121000-
EASTERN MASSACHUSETTS
  
CITY           SKY/WX    TMP DP  RH WIND       PRES   REMARKS
BOSTON         FAIR      28  12  51 W13       30.51R WCI  17          
BEVERLY        FAIR      24  15  68 NW8       30.49R WCI  15          
LAWRENCE       FAIR      25   8  48 W14       30.52R WCI  13          
BEDFORD        FAIR      24  12  60 W9        30.50R WCI  14          
BLUE HILL        N/A     20  14  77 W14       30.46R WCI   7          
NORWOOD        FAIR      26  14  60 W6        30.52R WCI  19          
MARSHFIELD     FAIR      25  19  80 VRB5G13   30.50R WCI  19          
PLYMOUTH       FAIR      22  16  78 W7        30.50R WCI  13          
TAUNTON        FAIR      24  15  68 NW5       30.51R WCI  18          
NEW BEDFORD    FAIR      24  15  68 NW8       30.51R WCI  15          
$$

MAZALL-121000-
CAPE COD AND THE ISLANDS
  
CITY           SKY/WX    TMP DP  RH WIND       PRES   REMARKS
FALMOUTH       CLEAR     25  16  68 NW7G20    30.50R WCI  17          
HYANNIS        FAIR      27  17  66 NW8       30.48R WCI  19          
CHATHAM        FAIR      28  21  75 NW7       30.49R WCI  21          
PROVINCETOWN   FAIR      30  20  66 NW22G30   30.49R WCI  17          
NANTUCKET      FAIR      30  16  56 NW12G26   30.50R WCI  20          
MARTHAS VNYRD  FAIR      27  14  58 NW8       30.52R WCI  19          
$$
 
MAZALL-121000-
CENTRAL AND WESTERN MASSACHUSETTS
  
CITY           SKY/WX    TMP DP  RH WIND       PRES   REMARKS
WORCESTER      FAIR      20   8  60 W10       30.46R WCI   9          
FITCHBURG      FAIR      22   8  55 NW9       30.51R WCI  12          
ORANGE         FAIR      23   6  48 N6        30.51R WCI  16          
SPRINGFIELD    FAIR      20  10  65 W7        30.54R WCI  11          
WESTFIELD      FAIR      22   9  57 W8        30.56R WCI  12          
NORTH ADAMS    FAIR      21  12  68 W12       30.52R WCI   9          
PITTSFIELD     FAIR      19   9  65 W16G23    30.47R WCI   4          
$$
 
RIZALL-121000-
RHODE ISLAND
  
CITY           SKY/WX    TMP DP  RH WIND       PRES   REMARKS
PROVIDENCE     FAIR      25  12  58 NW12      30.54R WCI  14          
NEWPORT        FAIR      27  12  53 NW16G25   30.52R WCI  15          
BLOCK ISLAND   FAIR      26  14  60 NW18G29   30.55R WCI  13          
SMITHFIELD     FAIR      21  13  71 W6        30.52R WCI  13          
WESTERLY       FAIR      28  11  48 NW7G18    30.56R WCI  21          
$$
 
CTZALL-121000-
CONNECTICUT
  
CITY           SKY/WX    TMP DP  RH WIND       PRES   REMARKS
BRADLEY INTL   FAIR      21   8  57 CALM      30.57R                  
HARTFORD       FAIR      25  11  55 W7        30.60R WCI  17          
BRIDGEPORT     FAIR      26  11  52 NW7       30.61R WCI  18          
DANBURY        FAIR      16  12  84 CALM      30.59R                  
GROTON         FAIR      26  11  52 NW14      30.56R WCI  14          
NEW HAVEN      FAIR      29  13  51 NW7       30.59R WCI  22          
CHESTER        FAIR      25   9  50 NW6G13    30.56R WCI  18          
MERIDEN        FAIR      23   9  55 W6        30.59R WCI  16          
WILLIMANTIC    FAIR      18  13  80 W5        30.58R WCI  11          
OXFORD         FAIR      19  10  68 CALM      30.55R                  
$$

MEZ002-015-021-024-NHZ003-005-008-011-012-014-VTZ005-008-121000-
NORTHERN NEW ENGLAND
  
CITY           SKY/WX    TMP DP  RH WIND       PRES   REMARKS
PORTLAND ME    FAIR      26   6  42 W12       30.45R WCI  16          
BANGOR ME      FAIR      22   3  44 W9G18     30.37R WCI  12          
CONCORD NH     FAIR      22   5  48 NW7       30.49R WCI  13          
MANCHESTER NH  FAIR      25   5  42 NW13      30.48R WCI  14          
NASHUA NH      FAIR      24   8  50 NW7       30.52R WCI  16          
PORTSMOUTH NH  CLEAR     24   5  43 W10       30.47R WCI  14          
JAFFREY NH     FAIR      20   4  50 W6        30.45R WCI  12          
KEENE NH       FAIR      22   5  48 NW5       30.51R WCI  16          
BURLINGTON VT  FAIR      22   7  52 W10G20    30.49R WCI  11          
MT. WASHINGTON BLWGSNOW  -8  -8 100 W72G84      N/A  VSB 0   WCI -46  
$$

NYZ052-076-121000-
EASTERN NEW YORK
  
CITY           SKY/WX    TMP DP  RH WIND       PRES   REMARKS
ALBANY         FAIR      22  11  62 N3        30.58R                  
NEW YORK CITY  FAIR      30  14  51 N9        30.61R WCI  22          
$$
 
ANZALL-121000-
MARINE OBSERVATIONS
  
STATION/POSITION TIME  TEMP    WIND        PRES    VSBY  WAVE
                       AIR SEA DIR/SP/G                  HT/PER
                 (UTC) (F)     (DEG/KT/KT) (MB)    (MI)  (FT/S)
BOSTON BUOY      0850   31 47  310/ 19/ 25 1031.8R         4/ 4
BUZZARDS BAY     0800   30     330/ 17/ 19 1033.0R
NANTUCKET SOUND  0840   31 42                N/A
MASS BAY-STELLWA 0804   31 45  320/ 21/ 27 1029.9R  1 7/8  3/ 4
ISLE OF SHOALS   0800   28     280/ 23/ 27 1030.2R
S OF BLOCK IS    0900      52                N/A           7/ 5
$$

......................KEY.........................
  SKY/WX - SKY CONDITION/PRESENT WEATHER
  TMP    - TEMPERATURE IN FAHRENHEIT
  DWPT   - DEWPOINT IN FAHRENHEIT
  RH     - RELATIVE HUMIDITY IN PERCENT
  WIND   - DIRECTION AND SPEED IN MPH
  PRES   - MEAN SEA LEVEL PRESSURE IN INCHES OF HG
  WCI    - WIND CHILL INDEX
  VSB    - VISIBILITY IN MILES
  HX     - HEAT INDEX
  TC     - TEMPERATURE IN CELSIUS
  VRB    - VARIABLE WIND DIRECTION
  N/A    - NOT AVAILABLE
  
      

Other recent Regional Weather Roundups

Thu Dec 12, 3:10pm

Thu Dec 12, 3:00pm

Thu Dec 12, 2:10pm

Thu Dec 12, 2:01pm

Thu Dec 12, 1:10pm

Thu Dec 12, 1:00pm

Thu Dec 12, 12:10pm

Thu Dec 12, 12:00pm

Thu Dec 12, 11:10am

Thu Dec 12, 11:00am

Thu Dec 12, 10:10am

Thu Dec 12, 8:10am

Thu Dec 12, 8:00am

Thu Dec 12, 7:10am

Thu Dec 12, 7:00am

Thu Dec 12, 6:10am

Thu Dec 12, 6:00am

Thu Dec 12, 5:10am

Thu Dec 12, 5:00am

Thu Dec 12, 4:00am

Thu Dec 12, 3:10am

Thu Dec 12, 3:00am

Thu Dec 12, 2:10am

Thu Dec 12, 2:00am

Thu Dec 12, 1:10am

Thu Dec 12, 1:00am

Thu Dec 12, 12:10am

Thu Dec 12, 12:00am

Wed Dec 11, 11:10pm

Wed Dec 11, 11:00pm

Wed Dec 11, 10:10pm

Wed Dec 11, 10:00pm

Wed Dec 11, 9:10pm

Wed Dec 11, 9:00pm

Wed Dec 11, 8:10pm

Wed Dec 11, 8:00pm

Wed Dec 11, 7:10pm

Wed Dec 11, 7:00pm

Wed Dec 11, 6:10pm

Wed Dec 11, 6:00pm

Wed Dec 11, 5:10pm

Wed Dec 11, 5:01pm

Wed Dec 11, 4:10pm

Wed Dec 11, 4:00pm

Wed Dec 11, 3:10pm

Wed Dec 11, 3:01pm

Wed Dec 11, 2:10pm

Wed Dec 11, 2:00pm

Wed Dec 11, 1:10pm

Wed Dec 11, 1:00pm

Wed Dec 11, 12:10pm

Wed Dec 11, 12:00pm

Wed Dec 11, 11:10am

Wed Dec 11, 11:00am

Wed Dec 11, 10:10am

Wed Dec 11, 10:00am

Wed Dec 11, 9:10am

Wed Dec 11, 9:00am

Wed Dec 11, 8:10am

Wed Dec 11, 8:00am

Wed Dec 11, 7:10am

Wed Dec 11, 7:00am

Wed Dec 11, 6:10am

Wed Dec 11, 6:00am

Wed Dec 11, 5:10am

Wed Dec 11, 5:00am

Wed Dec 11, 4:10am

Wed Dec 11, 4:00am

Wed Dec 11, 3:10am

Wed Dec 11, 3:01am

Wed Dec 11, 2:10am

Wed Dec 11, 2:01am

Wed Dec 11, 1:10am

Wed Dec 11, 1:00am

Wed Dec 11, 12:10am

Wed Dec 11, 12:00am

Tue Dec 10, 11:10pm

Tue Dec 10, 11:00pm

Tue Dec 10, 10:10pm

Tue Dec 10, 10:00pm

Tue Dec 10, 9:10pm

Tue Dec 10, 9:01pm

Tue Dec 10, 8:10pm

Tue Dec 10, 8:00pm

Tue Dec 10, 7:10pm

Tue Dec 10, 7:01pm

Tue Dec 10, 6:10pm

Tue Dec 10, 6:01pm

Tue Dec 10, 5:10pm

Tue Dec 10, 5:00pm

Tue Dec 10, 4:10pm

Tue Dec 10, 4:01pm

Tue Dec 10, 3:10pm

Tue Dec 10, 3:01pm

Tue Dec 10, 2:10pm

Tue Dec 10, 2:01pm

Tue Dec 10, 1:10pm

Tue Dec 10, 1:00pm

Tue Dec 10, 12:10pm

Tue Dec 10, 12:00pm

Tue Dec 10, 11:10am

Tue Dec 10, 11:00am

Tue Dec 10, 10:10am

Tue Dec 10, 10:00am

Tue Dec 10, 9:10am

Tue Dec 10, 9:01am

Tue Dec 10, 8:10am

Tue Dec 10, 8:00am

Tue Dec 10, 7:10am

Tue Dec 10, 7:00am

Tue Dec 10, 6:10am

Tue Dec 10, 6:00am

Tue Dec 10, 5:10am

Tue Dec 10, 5:00am

Tue Dec 10, 4:10am

Tue Dec 10, 4:00am

Tue Dec 10, 3:10am

Tue Dec 10, 3:00am

Tue Dec 10, 2:10am

Tue Dec 10, 2:01am

Tue Dec 10, 1:10am

Tue Dec 10, 1:00am

Tue Dec 10, 12:10am

Tue Dec 10, 12:01am

Mon Dec 9, 11:10pm

Mon Dec 9, 11:01pm

Mon Dec 9, 10:10pm

Mon Dec 9, 10:00pm

Mon Dec 9, 9:10pm

Mon Dec 9, 9:01pm

Mon Dec 9, 8:10pm

Mon Dec 9, 8:01pm

Mon Dec 9, 7:10pm

Mon Dec 9, 7:00pm

Mon Dec 9, 6:10pm

Mon Dec 9, 6:00pm

Mon Dec 9, 5:10pm

Mon Dec 9, 5:01pm

Mon Dec 9, 4:10pm

Mon Dec 9, 4:01pm

Meta data:

ID: 1eb0dcbc-8602-474d-9e24-b2f4d64bb7f8
Link: https://api.weather.gov/products/1eb0dcbc-8602-474d-9e24-b2f4d64bb7f8